User: anonymous   Login
Location: Shades State Park
(39.9310°N, 87.0690°W)
Time: 05:46:10
(UTC-04:00)
Language:

H-2A R/B - Orbit

View from above orbital plane
View from above orbital plane
View from above satellite
View from above satellite

Ground track
Ground track

The orbit data is extracted from the following two-line orbital elements,

1 27601U 02056E   16237.17698258  .00000038  00000-0  29147-4 0  9992
2 27601  98.4140 308.6484 0073455  95.7232 285.5247 14.31729896715308
Epoch (UTC): 24 August 2016 04:14:51
Eccentricity: 0.0073455
inclination: 98.4140°
perigee height: 733 km
apogee height: 838 km
right ascension of ascending node: 308.6484°
argument of perigee: 95.7232°
revolutions per day: 14.31729896
mean anomaly at epoch: 285.5247°
orbit number at epoch: 71530

The dashed part of the orbit path shows where the satellite is in the earth's shadow,  

DLR